User: anonymous   Login
Location: Buckeye Ditch
(40.9104°N, 122.9517°W)
Time: 19:49:59
(UTC+00:00)
Language:

Cosmos 2056 Rocket - Orbit

View from above orbital plane
View from above orbital plane
View from above satellite
View from above satellite

Ground track
Ground track

The orbit data is extracted from the following two-line orbital elements,

1 20433U 90004B   24166.56677427  .00000451  00000-0  16022-3 0  9992
2 20433  74.0367 345.3021 0041014 212.3920 204.0640 14.36794640801636
Epoch (UTC): 14 June 2024 13:36:09
Eccentricity: 0.0041014
inclination: 74.0367°
perigee height: 740 km
apogee height: 798 km
right ascension of ascending node: 345.3021°
argument of perigee: 212.3920°
revolutions per day: 14.36794640
mean anomaly at epoch: 204.0640°
orbit number at epoch: 80163

The dashed part of the orbit path shows where the satellite is in the earth's shadow,  

DLR